Time,TemperatureF,DewpointF,PressureIn,WindDirection,WindDirectionDegrees,WindSpeedMPH,WindSpeedGustMPH,Humidity,HourlyPrecipIn,Conditions,Clouds,dailyrainin,SoftwareType,DateUTC
2013-09-07 00:22:00,78.0,-99.9,29.76,South,183,1.0,3.0,-999,-99.99,,,-99.99,,2013-09-07 07:22:00,
2013-09-07 00:52:00,77.0,-99.9,29.74,SSW,213,1.0,2.0,-999,-99.99,,,-99.99,,2013-09-07 07:52:00,
2013-09-07 01:03:00,77.0,-99.9,29.74,SSW,213,1.0,2.0,-999,-99.99,,,-99.99,,2013-09-07 08:03:00,
2013-09-07 01:22:00,77.0,-99.9,29.75,SW,236,2.0,2.0,-999,-99.99,,,-99.99,,2013-09-07 08:22:00,
2013-09-07 01:32:00,77.0,-99.9,29.75,SW,236,2.0,2.0,-999,-99.99,,,-99.99,,2013-09-07 08:32:00,
2013-09-07 01:53:00,77.0,-99.9,29.74,SW,231,2.0,3.0,-999,-99.99,,,-99.99,,2013-09-07 08:53:00,
2013-09-07 02:21:00,76.0,-99.9,29.75,SSE,168,1.0,2.0,-999,-99.99,,,-99.99,,2013-09-07 09:21:00,
2013-09-07 02:32:00,76.0,-99.9,29.75,SSE,168,1.0,2.0,-999,-99.99,,,-99.99,,2013-09-07 09:32:00,
2013-09-07 02:52:00,76.0,-99.9,29.76,ESE,113,2.0,4.0,-999,-99.99,,,-99.99,,2013-09-07 09:52:00,
2013-09-07 03:21:00,75.0,-99.9,29.74,SW,228,1.0,2.0,-999,-99.99,,,-99.99,,2013-09-07 10:21:00,
2013-09-07 03:31:00,75.0,-99.9,29.74,SW,228,1.0,2.0,-999,-99.99,,,-99.99,,2013-09-07 10:31:00,
2013-09-07 03:52:00,75.0,-99.9,29.74,WSW,246,1.0,2.0,-999,-99.99,,,-99.99,,2013-09-07 10:52:00,
2013-09-07 04:23:00,75.0,-99.9,29.75,South,180,0.0,1.0,-999,-99.99,,,-99.99,,2013-09-07 11:23:00,
2013-09-07 04:53:00,74.0,-99.9,29.76,SW,216,2.0,3.0,-999,-99.99,,,-99.99,,2013-09-07 11:53:00,
2013-09-07 05:22:00,74.0,-99.9,29.75,ESE,117,1.0,5.0,-999,-99.99,,,-99.99,,2013-09-07 12:22:00,
2013-09-07 05:32:00,74.0,-99.9,29.75,ESE,117,1.0,5.0,-999,-99.99,,,-99.99,,2013-09-07 12:32:00,
2013-09-07 05:52:00,73.0,-99.9,29.77,SE,144,1.0,3.0,-999,-99.99,,,-99.99,,2013-09-07 12:52:00,
2013-09-07 06:22:00,73.0,-99.9,29.74,East,90,0.0,1.0,-999,-99.99,,,-99.99,,2013-09-07 13:22:00,
2013-09-07 06:52:00,72.0,-99.9,29.77,WSW,247,1.0,2.0,-999,-99.99,,,-99.99,,2013-09-07 13:52:00,
2013-09-07 07:22:00,72.0,-99.9,29.76,SSW,205,1.0,2.0,-999,-99.99,,,-99.99,,2013-09-07 14:22:00,
2013-09-07 07:52:00,73.0,-99.9,29.79,SW,226,1.0,2.0,-999,-99.99,,,-99.99,,2013-09-07 14:52:00,
2013-09-07 08:23:00,74.0,-99.9,29.78,WSW,254,1.0,2.0,-999,-99.99,,,-99.99,,2013-09-07 15:23:00,
2013-09-07 08:34:00,74.0,-99.9,29.78,WSW,254,1.0,2.0,-999,-99.99,,,-99.99,,2013-09-07 15:34:00,
2013-09-07 08:54:00,76.0,-99.9,29.79,SSW,211,2.0,5.0,-999,-99.99,,,-99.99,,2013-09-07 15:54:00,
2013-09-07 09:24:00,77.0,-99.9,29.77,SW,232,3.0,6.0,-999,-99.99,,,-99.99,,2013-09-07 16:24:00,
2013-09-07 09:53:00,80.0,-99.9,29.80,WSW,244,3.0,6.0,-999,-99.99,,,-99.99,,2013-09-07 16:53:00,
2013-09-07 10:24:00,82.0,-99.9,29.77,WNW,286,1.0,5.0,-999,-99.99,,,-99.99,,2013-09-07 17:24:00,
2013-09-07 10:34:00,82.0,-99.9,29.77,WNW,286,1.0,5.0,-999,-99.99,,,-99.99,,2013-09-07 17:34:00,
2013-09-07 10:52:00,83.0,-99.9,29.77,West,269,3.0,6.0,-999,-99.99,,,-99.99,,2013-09-07 17:52:00,
2013-09-07 11:22:00,87.0,-99.9,29.77,WSW,239,3.0,7.0,-999,-99.99,,,-99.99,,2013-09-07 18:22:00,
2013-09-07 11:52:00,89.0,-99.9,29.77,South,189,4.0,7.0,-999,-99.99,,,-99.99,,2013-09-07 18:52:00,
2013-09-07 12:02:00,89.0,-99.9,29.77,South,189,4.0,7.0,-999,-99.99,,,-99.99,,2013-09-07 19:02:00,
2013-09-07 12:22:00,91.0,-99.9,29.75,SSW,201,4.0,9.0,-999,-99.99,,,-99.99,,2013-09-07 19:22:00,
2013-09-07 12:32:00,91.0,-99.9,29.75,SSW,201,4.0,9.0,-999,-99.99,,,-99.99,,2013-09-07 19:32:00,
2013-09-07 12:53:00,92.0,-99.9,29.75,SSW,194,4.0,9.0,-999,-99.99,,,-99.99,,2013-09-07 19:53:00,
2013-09-07 13:22:00,93.0,-99.9,29.74,SW,220,6.0,10.0,-999,-99.99,,,-99.99,,2013-09-07 20:22:00,
2013-09-07 13:53:00,93.0,-99.9,29.72,SSW,208,6.0,12.0,-999,-99.99,,,-99.99,,2013-09-07 20:53:00,
2013-09-07 14:02:00,93.0,-99.9,29.72,SSW,208,6.0,12.0,-999,-99.99,,,-99.99,,2013-09-07 21:02:00,
2013-09-07 14:22:00,93.0,-99.9,29.72,SSW,205,6.0,11.0,-999,-99.99,,,-99.99,,2013-09-07 21:22:00,
2013-09-07 14:54:00,94.0,-99.9,29.70,SSW,207,7.0,12.0,-999,-99.99,,,-99.99,,2013-09-07 21:54:00,
2013-09-07 15:24:00,96.0,-99.9,29.70,West,267,5.0,13.0,-999,-99.99,,,-99.99,,2013-09-07 22:24:00,
2013-09-07 15:53:00,94.0,-99.9,29.71,WNW,286,5.0,11.0,-999,-99.99,,,-99.99,,2013-09-07 22:53:00,
2013-09-07 16:23:00,93.0,-99.9,29.71,West,273,7.0,12.0,-999,-99.99,,,-99.99,,2013-09-07 23:23:00,
2013-09-07 16:34:00,93.0,-99.9,29.71,West,273,7.0,12.0,-999,-99.99,,,-99.99,,2013-09-07 23:34:00,
2013-09-07 16:53:00,93.0,-99.9,29.70,WNW,283,6.0,11.0,-999,-99.99,,,-99.99,,2013-09-07 23:53:00,
2013-09-07 17:52:00,91.0,-99.9,29.72,WSW,254,4.0,13.0,-999,-99.99,,,-99.99,,2013-09-08 00:52:00,
2013-09-07 18:52:00,88.0,-99.9,29.71,WNW,293,3.0,9.0,-999,-99.99,,,-99.99,,2013-09-08 01:52:00,
2013-09-07 19:02:00,88.0,-99.9,29.71,WNW,293,3.0,9.0,-999,-99.99,,,-99.99,,2013-09-08 02:02:00,
2013-09-07 19:52:00,85.0,-99.9,29.74,WNW,297,2.0,6.0,-999,-99.99,,,-99.99,,2013-09-08 02:52:00,
2013-09-07 20:03:00,85.0,-99.9,29.74,WNW,297,2.0,6.0,-999,-99.99,,,-99.99,,2013-09-08 03:03:00,
2013-09-07 21:03:00,-999.0,-99.9,29.76,South,180,4.0,6.0,-999,-99.99,,,-99.99,,2013-09-08 04:03:00,
2013-09-07 21:24:00,79.0,-99.9,29.76,SSE,167,4.0,6.0,-999,-99.99,,,-99.99,,2013-09-08 04:24:00,
2013-09-07 22:52:00,76.0,-99.9,29.77,SE,127,2.0,5.0,-999,-99.99,,,-99.99,,2013-09-08 05:52:00,
2013-09-07 23:53:00,74.0,-99.9,29.76,SE,135,2.0,5.0,-999,-99.99,,,-99.99,,2013-09-08 06:53:00,